Wind_Speed
8 7 7 8 8 7 7 7 7 7 6 7 6 6 5 6 6 6 6 6 6 6 6 7 6 6 7 7 7 6 6 5 4 7 8 7 5 5 4 4 4 4 3
8 7 7 8 7 7 7 7 7 7 7 7 7 6 6 5 6 5 6 6 7 8 7 7 7 7 6 6 6 6 6 5 6 6 6 5 5 5 4 4 4 3 3
8 7 7 7 7 7 7 7 7 7 7 7 7 6 6 6 6 6 6 6 7 8 8 7 7 7 6 6 6 6 5 6 5 5 5 4 4 4 4 4 3 3 2
7 7 7 6 6 7 7 7 7 7 7 7 6 6 6 6 6 6 7 7 7 8 7 7 6 6 6 5 5 6 5 5 5 4 4 4 3 4 4 3 3 3 2
7 7 6 6 6 7 7 7 7 7 6 6 6 6 7 7 6 6 6 7 6 7 8 7 7 6 7 6 6 6 6 6 4 4 4 3 3 4 3 3 2 3 2
8 8 7 7 6 7 7 7 7 6 6 6 7 7 7 7 8 7 7 7 7 7 8 7 7 7 7 6 6 6 6 6 5 4 3 3 3 4 4 3 3 3 3
9 8 8 7 6 7 7 7 6 6 6 7 7 8 8 8 8 8 8 8 7 7 7 7 6 6 5 5 6 7 6 5 4 3 2 3 3 3 4 3 4 4 4
9 9 9 8 8 8 7 7 7 6 6 6 7 8 8 9 8 8 8 8 7 7 7 6 6 5 4 3 4 4 4 3 3 2 2 3 3 3 3 3 3 4 4
10 10 9 8 8 8 8 7 6 7 7 6 7 7 8 8 8 7 7 7 7 7 7 6 4 3 3 3 2 2 2 3 3 2 2 2 2 2 2 3 3 3 3
10 10 9 9 9 8 8 8 7 7 8 7 7 7 7 7 6 7 6 6 6 6 5 5 4 3 2 2 2 3 3 3 2 1 2 2 2 2 2 2 3 3 4
9 9 9 9 9 8 8 8 8 7 7 7 7 7 7 6 6 7 6 6 6 5 4 4 3 2 2 3 3 3 3 2 2 2 2 2 2 2 3 3 3 3 4
10 10 9 9 8 8 8 8 7 7 7 7 7 7 7 7 6 6 6 7 6 5 4 3 3 4 4 4 3 3 2 3 1 2 2 2 1 2 3 2 3 4 4
10 10 10 10 9 8 8 7 7 7 7 7 7 7 7 7 7 7 6 6 5 4 4 4 5 5 4 3 2 3 3 2 2 2 2 1 1 1 2 2 3 3 4
10 10 10 10 10 9 9 9 8 8 7 7 7 7 7 7 6 6 5 4 4 4 3 4 4 4 3 2 2 2 2 2 2 2 2 2 2 2 2 3 3 4 5
11 11 11 11 10 10 9 9 9 8 7 8 8 7 7 6 6 5 5 4 3 4 3 3 4 4 3 2 1 2 2 2 2 2 2 2 2 2 3 3 4 5 6
12 12 11 10 10 10 9 9 9 8 8 8 8 7 7 6 6 5 5 4 3 3 3 3 3 2 2 2 2 1 2 2 2 2 2 2 3 3 4 4 5 6 7
12 12 11 11 10 10 9 9 9 9 9 8 8 7 6 6 6 6 5 4 4 4 3 3 3 2 2 2 2 2 2 2 2 3 3 3 4 4 5 5 5 6 7
12 12 11 11 10 10 9 9 9 9 9 9 8 8 7 7 7 7 6 5 5 5 4 4 3 3 3 3 3 3 3 3 4 4 5 5 6 6 6 6 6 6 6
12 11 11 11 11 10 10 9 9 9 9 8 8 8 8 8 8 7 7 6 6 6 5 4 4 4 4 4 4 4 5 5 6 6 6 6 6 7 7 8 8 8 8
12 11 11 11 11 10 10 9 9 8 8 8 8 7 7 7 7 7 7 6 6 6 5 5 5 5 5 5 4 4 5 6 7 7 7 7 7 7 8 8 9 10 10
11 11 11 10 10 10 10 9 9 8 8 7 7 7 7 6 6 6 6 6 6 6 5 5 5 5 5 5 6 6 6 6 7 7 7 8 8 8 8 9 10 10 10
10 10 10 10 9 9 9 9 9 8 8 7 7 7 6 6 6 6 6 6 6 7 7 6 5 5 5 6 6 7 7 7 7 7 8 9 9 9 9 9 10 10 10
10 9 9 9 9 9 9 9 9 9 8 8 8 7 7 7 6 6 6 7 7 7 6 6 6 5 6 6 6 7 7 8 8 8 9 10 10 10 10 10 11 11 11
9 9 8 8 8 8 9 9 9 9 9 9 8 8 8 8 7 7 7 7 7 7 7 6 6 6 6 6 7 7 7 8 9 9 9 10 10 10 11 11 12 12 12
9 8 8 8 8 8 9 9 9 9 9 9 8 8 8 8 8 8 8 8 8 8 8 7 6 7 7 7 7 7 8 9 9 9 10 10 11 11 11 12 12 13 12
9 9 9 8 8 8 8 9 9 9 9 9 9 9 8 8 9 9 9 9 8 9 8 7 7 8 8 8 8 8 9 9 9 10 10 11 12 12 12 12 13 13 13
Wind_Direction
111 117 119 115 110 114 117 117 117 118 117 118 120 120 121 118 120 130 130 135 131 124 123 131 136 133 127 127 139 139 137 140 133 142 146 145 143 141 144 158 164 166 173
110 109 116 110 111 116 118 119 118 116 116 116 116 116 123 124 120 123 131 127 126 123 124 128 123 121 125 131 131 130 132 131 133 140 145 148 146 140 141 160 183 172 186
107 103 108 110 114 118 120 118 116 111 111 113 115 114 120 125 124 119 123 131 130 127 126 124 121 125 129 133 127 126 128 134 134 133 141 149 161 165 165 167 179 163 170
100 100 103 103 108 121 119 116 114 110 108 108 113 112 110 116 125 122 121 131 128 133 135 131 125 129 139 141 139 140 139 137 135 139 144 149 161 163 166 169 166 164 174
97 101 98 93 106 120 120 116 113 110 105 104 107 106 110 111 112 120 121 126 127 129 136 136 135 137 146 148 149 150 142 141 134 144 151 160 162 171 179 177 178 182 182
94 93 93 95 106 115 119 115 110 107 104 103 104 100 108 113 110 114 123 124 123 127 129 131 135 137 139 143 144 140 146 145 146 149 149 158 170 177 187 188 185 191 190
93 92 91 97 105 108 111 111 107 108 108 106 104 100 100 110 111 109 113 112 114 119 122 122 121 119 121 123 130 140 146 146 153 148 156 170 172 184 195 199 202 207 208
88 92 89 92 92 93 96 102 105 109 109 105 104 101 102 105 106 108 111 113 110 113 117 121 114 110 111 109 121 135 138 126 137 152 161 182 177 175 187 206 213 226 219
83 83 84 87 85 83 85 90 97 103 107 107 106 103 101 101 103 105 107 114 118 119 117 117 116 102 96 95 105 121 126 120 134 154 171 181 181 183 206 226 223 223 215
76 78 79 82 84 85 82 84 90 92 97 97 99 102 100 99 99 103 102 109 122 120 118 114 109 106 96 89 89 92 98 121 137 141 166 169 177 204 218 224 235 238 229
73 76 76 78 79 78 84 86 84 87 93 94 92 97 96 97 101 105 104 107 110 107 108 106 109 105 104 105 96 99 91 98 86 68 139 144 138 168 208 211 228 245 241
69 70 70 70 74 78 84 85 80 80 83 90 91 99 93 91 95 100 106 103 100 100 100 95 100 92 93 100 94 83 74 72 73 41 101 136 177 191 193 214 253 255 263
67 67 68 67 72 74 76 77 84 87 85 84 87 89 85 88 94 98 101 101 100 99 103 89 95 90 93 100 91 75 67 60 45 40 41 59 215 223 253 269 275 281 274
66 67 66 68 71 71 72 75 81 84 87 89 89 94 90 91 88 86 88 102 94 81 89 106 93 95 98 108 102 75 58 64 70 44 13 355 319 302 301 298 293 290 291
63 64 63 65 68 69 69 74 76 72 73 81 85 86 87 83 77 72 71 71 80 76 75 80 83 86 85 93 82 53 39 35 33 13 6 354 342 337 330 318 302 299 299
62 62 62 64 66 68 70 69 71 74 71 72 73 72 73 70 67 71 68 68 69 65 57 61 67 73 64 66 58 28 2 351 330 338 346 343 325 318 315 317 312 307 309
59 60 60 60 62 64 66 66 66 68 67 68 67 69 67 62 57 66 76 70 68 61 55 50 41 27 20 22 23 16 1 329 314 316 316 318 314 308 308 314 314 312 311
54 55 57 57 58 59 61 62 63 62 64 63 61 60 56 54 52 58 65 58 46 46 41 39 31 24 14 6 3 5 2 343 339 326 319 316 312 308 306 307 305 304 304
51 53 54 56 57 59 59 58 59 57 56 56 56 55 51 49 48 49 49 42 35 36 35 32 25 19 13 7 357 354 351 348 348 343 336 328 319 314 309 305 301 296 298
49 51 52 53 54 54 53 53 55 53 50 47 46 45 43 39 37 37 37 33 25 23 20 16 15 14 11 2 351 349 344 343 344 339 339 337 329 321 318 316 310 302 300
46 48 49 49 48 47 45 44 45 46 43 41 39 35 31 28 29 28 26 23 19 18 15 14 14 11 6 0 357 349 339 338 339 341 334 336 334 329 326 322 320 315 306
43 43 44 43 43 41 38 37 37 36 34 31 29 28 25 23 22 19 18 19 19 16 15 13 10 10 6 359 350 344 344 339 334 335 331 330 328 324 322 321 322 319 317
37 38 37 37 37 36 35 33 31 30 28 26 24 23 23 19 15 11 14 15 13 11 12 8 4 1 359 353 346 341 344 346 340 336 332 330 328 323 319 318 316 313 312
33 33 33 30 29 28 27 27 27 25 23 23 21 20 18 16 14 10 8 5 3 1 0 356 351 348 346 341 343 341 340 339 337 333 333 334 333 329 323 320 317 314 312
27 28 29 25 24 24 23 24 23 23 20 18 16 13 9 6 5 1 359 355 353 354 352 347 343 341 342 343 345 346 343 341 340 337 337 336 336 334 329 326 324 321 315
19 22 23 18 16 19 22 22 21 19 16 12 10 7 4 2 360 355 354 352 350 349 347 345 339 335 336 341 342 340 338 337 336 335 334 332 333 331 329 328 323 320 318
Height
5864 5864 5864 5864 5865 5865 5865 5865 5865 5865 5865 5865 5865 5865 5865 5865 5866 5866 5866 5866 5867 5867 5867 5868 5870 5871 5872 5874 5875 5876 5878 5878 5879 5880 5881 5883 5884 5885 5887 5888 5888 5889 5890
5865 5865 5865 5866 5866 5866 5866 5867 5867 5866 5866 5866 5866 5866 5866 5866 5867 5867 5867 5867 5868 5868 5869 5870 5871 5872 5874 5875 5876 5877 5878 5879 5880 5881 5882 5884 5885 5886 5887 5888 5889 5890 5891
5866 5866 5867 5867 5867 5867 5868 5868 5868 5868 5868 5868 5867 5868 5868 5868 5868 5868 5868 5869 5869 5870 5871 5872 5873 5874 5875 5876 5877 5878 5879 5880 5881 5882 5883 5884 5885 5886 5887 5888 5889 5890 5891
5867 5868 5868 5868 5868 5868 5869 5869 5869 5870 5869 5869 5869 5869 5869 5869 5869 5869 5870 5870 5870 5871 5872 5873 5874 5875 5876 5877 5878 5879 5880 5881 5882 5883 5884 5885 5886 5887 5888 5889 5889 5890 5891
5869 5869 5870 5870 5870 5870 5870 5871 5871 5871 5871 5870 5870 5870 5870 5870 5871 5871 5871 5871 5872 5872 5874 5875 5875 5876 5876 5877 5878 5879 5880 5881 5882 5883 5884 5885 5886 5887 5888 5889 5889 5890 5891
5870 5871 5871 5871 5871 5871 5871 5872 5872 5872 5872 5872 5872 5872 5872 5872 5872 5872 5873 5873 5873 5874 5875 5876 5876 5877 5877 5878 5878 5880 5881 5882 5883 5884 5884 5885 5886 5887 5888 5888 5889 5890 5891
5872 5872 5873 5873 5873 5873 5873 5873 5873 5873 5873 5873 5873 5873 5873 5873 5874 5874 5874 5875 5875 5876 5876 5877 5878 5878 5879 5880 5880 5880 5882 5883 5884 5884 5884 5885 5886 5887 5888 5888 5889 5890 5891
5874 5874 5874 5875 5875 5875 5874 5874 5874 5874 5874 5874 5875 5875 5875 5875 5875 5876 5876 5876 5877 5877 5878 5879 5879 5880 5880 5881 5882 5882 5883 5884 5884 5884 5885 5885 5886 5887 5888 5888 5889 5890 5890
5877 5876 5876 5876 5876 5876 5876 5876 5876 5875 5875 5876 5876 5876 5876 5877 5877 5877 5878 5878 5878 5879 5880 5880 5881 5881 5881 5882 5883 5883 5884 5884 5885 5885 5885 5885 5886 5887 5888 5888 5889 5889 5890
5879 5879 5879 5878 5878 5878 5878 5877 5877 5877 5877 5877 5877 5878 5878 5878 5878 5878 5879 5879 5879 5880 5881 5881 5882 5882 5882 5883 5883 5884 5884 5885 5885 5885 5885 5885 5886 5887 5888 5888 5889 5889 5889
5881 5881 5880 5880 5879 5879 5879 5879 5879 5879 5878 5879 5879 5879 5880 5880 5880 5880 5880 5880 5881 5881 5882 5882 5882 5883 5883 5884 5884 5884 5885 5885 5885 5885 5885 5886 5886 5887 5888 5888 5889 5889 5889
5883 5883 5883 5882 5882 5882 5882 5881 5881 5881 5880 5880 5880 5880 5881 5881 5882 5881 5881 5882 5882 5882 5882 5882 5883 5883 5884 5884 5885 5885 5886 5886 5886 5886 5886 5886 5887 5887 5887 5888 5889 5889 5889
5886 5885 5885 5884 5884 5883 5883 5883 5883 5883 5882 5882 5882 5882 5882 5883 5883 5883 5883 5883 5883 5883 5883 5883 5883 5884 5885 5885 5886 5886 5887 5887 5887 5887 5887 5887 5887 5887 5888 5888 5888 5888 5888
5888 5888 5887 5886 5886 5885 5885 5885 5885 5884 5884 5884 5884 5884 5884 5885 5885 5885 5885 5885 5885 5884 5884 5884 5884 5886 5886 5887 5887 5887 5887 5888 5888 5888 5888 5888 5888 5888 5888 5888 5888 5888 5888
5890 5890 5889 5889 5888 5887 5887 5887 5887 5887 5886 5886 5886 5886 5886 5886 5886 5886 5886 5886 5886 5886 5886 5886 5886 5887 5887 5887 5888 5887 5888 5888 5888 5888 5888 5888 5888 5888 5888 5888 5887 5887 5887
5893 5892 5892 5891 5890 5890 5889 5889 5889 5889 5889 5888 5888 5888 5888 5888 5888 5887 5887 5887 5887 5887 5887 5887 5887 5887 5888 5888 5888 5888 5888 5888 5888 5888 5888 5888 5888 5888 5887 5887 5886 5886 5885
5896 5895 5894 5894 5893 5892 5892 5891 5891 5891 5891 5891 5890 5890 5890 5889 5889 5888 5888 5888 5888 5888 5888 5888 5888 5888 5888 5888 5888 5888 5888 5888 5888 5888 5887 5887 5887 5887 5886 5886 5885 5885 5884
5899 5898 5897 5896 5895 5895 5894 5894 5893 5893 5893 5893 5892 5892 5891 5890 5890 5890 5889 5889 5889 5888 5888 5888 5888 5888 5888 5888 5888 5888 5888 5888 5887 5887 5886 5886 5886 5886 5885 5885 5884 5883 5883
5901 5901 5900 5899 5898 5898 5897 5896 5896 5895 5895 5894 5894 5893 5893 5892 5892 5891 5891 5890 5890 5889 5889 5889 5888 5888 5888 5888 5888 5888 5888 5888 5887 5887 5886 5886 5885 5884 5884 5883 5883 5882 5881
5904 5903 5902 5901 5901 5900 5899 5899 5898 5897 5897 5896 5895 5895 5894 5894 5893 5893 5892 5892 5891 5890 5890 5889 5888 5888 5888 5888 5888 5888 5888 5887 5887 5886 5885 5885 5884 5883 5882 5882 5881 5880 5880
5906 5905 5905 5904 5903 5902 5902 5901 5900 5899 5899 5898 5897 5896 5896 5895 5894 5894 5893 5893 5892 5891 5890 5889 5889 5889 5889 5888 5888 5888 5887 5887 5886 5885 5885 5884 5883 5882 5881 5880 5879 5879 5878
5909 5908 5907 5906 5905 5904 5904 5903 5902 5901 5900 5899 5898 5897 5897 5896 5895 5895 5894 5893 5893 5892 5891 5890 5890 5890 5889 5888 5888 5888 5887 5887 5885 5885 5884 5883 5882 5881 5880 5879 5878 5877 5876
5910 5909 5909 5908 5907 5906 5905 5904 5903 5902 5901 5900 5899 5898 5898 5897 5896 5895 5895 5894 5893 5892 5891 5891 5890 5890 5889 5889 5888 5887 5886 5885 5884 5884 5882 5882 5881 5879 5878 5877 5876 5875 5874
5912 5911 5910 5909 5908 5907 5906 5905 5904 5903 5902 5901 5900 5899 5898 5897 5897 5896 5895 5894 5893 5892 5891 5891 5890 5889 5889 5888 5887 5886 5885 5884 5883 5882 5882 5880 5879 5878 5877 5876 5874 5873 5871
5913 5912 5911 5910 5909 5908 5907 5906 5905 5904 5903 5902 5901 5900 5899 5898 5897 5896 5895 5894 5893 5892 5891 5890 5889 5889 5888 5887 5886 5886 5884 5883 5882 5881 5880 5879 5878 5876 5875 5874 5872 5870 5869
5914 5913 5912 5911 5910 5909 5908 5907 5906 5905 5904 5903 5902 5901 5900 5898 5897 5896 5895 5893 5892 5891 5890 5889 5889 5888 5887 5886 5885 5885 5884 5882 5881 5880 5879 5877 5876 5875 5873 5872 5870 5868 5867